Tracking 30744 objects as of 23-Jun-2025
HD Live streaming from Space Station
objects crossing your sky now

COSMOS 1249 FUEL CORE

Track COSMOS 1249 FUEL CORE now!
10-day predictions


NORAD ID: 12551
Int'l Code: 1981-021C
Perigee: 893.6 km
Apogee: 974.1 km
Inclination: 65.0 °
Period: 103.6 minutes
Semi major axis: 7304 km
RCS: 0.1622 m2 (medium)
Launch date: March 5, 1981
Source: Commonwealth of Independent States (former USSR) (CIS)
Launch site: TYURATAM MISSILE AND SPACE COMPLEX (TTMTR)

Note: This is SATELLITE DEBRIS
Your satellite tracking list
Your tracking list is empty




NASA's NSSDC Master Catalog

Two Line Element Set (TLE):
1 12551U 81021C   25173.02376420 -.00000098  00000-0 -61801-5 0  9998
2 12551  64.9666  77.1842 0055130 307.3733  52.2317 13.90540720251393
Source of the keplerian elements: AFSPC